Weather History for Dunkirk, NY

Change the Weather History Date:

Sunday, December 2, 2012

  Actual Average Record
Temperature  
Mean Temperature 50 °F -  
Max Temperature 53 °F 40 °F 68 °F (1982)
Min Temperature 48 °F 27 °F 8 °F (1976)
Degree Days  
Heating Degree Days 14    
Moisture  
Dew Point 48 °F    
Average Humidity 87    
Maximum Humidity 100    
Minimum Humidity 55    
Precipitation  
Precipitation 0.38 in - - ()
Sea Level Pressure  
Sea Level Pressure 30.02 in    
Wind  
Wind Speed 16 mph (SW)    
Max Wind Speed 23 mph    
Max Gust Speed 33 mph    
Visibility 4 miles    
Events Fog , Rain    
Averages and records for this station are not official NWS values.
T = Trace of Precipitation, MM = Missing Value Source: NWS Daily Summary

Daily Weather History Graph

Daily Weather History Graph

Search for Another Location

Airport:

Trip Planner

Search our weather history database for the weather conditions in past years. The results will help you decide how hot, cold, wet, or windy it might be!

Date:

Astronomy

Dec. 02, 2012 Rise Set
Actual Time 7:28 AM EST 4:44 PM EST
Civil Twilight 6:57 AM EST 5:16 PM EST
Nautical Twilight 6:22 AM EST 5:51 PM EST
Astronomical Twilight 5:48 AM EST 6:25 PM EST
Moon 8:32 PM EST (12/2) 10:15 AM EST (12/2)
Length of Visible Light 10h 19m
Length of Day
9h 16m
Waning Gibbous, 86% of the Moon is Illuminated
Dec 2
Waning Gibbous
Dec 6
Last Quarter
Dec 13
New
Dec 20
First Quarter
Dec 28
Full

Hourly Weather History & Observations

Time (EST) Temp. Dew Point Humidity Pressure Visibility Wind Dir Wind Speed Gust Speed Precip Events Conditions
12:53 AM 53.1 °F 37.0 °F 55% 30.13 in 10.0 mi South 23.0 mph 32.2 mph N/A   Clear
1:53 AM 53.1 °F 37.9 °F 57% 30.12 in 10.0 mi South 20.7 mph 32.2 mph N/A   Clear
2:53 AM 53.1 °F 37.9 °F 57% 30.11 in 10.0 mi South 16.1 mph 28.8 mph N/A   Clear
3:53 AM 52.0 °F 37.9 °F 59% 30.09 in 10.0 mi SSW 13.8 mph 23.0 mph N/A   Clear
4:53 AM 52.0 °F 37.9 °F 59% 30.08 in 10.0 mi South 19.6 mph 25.3 mph N/A   Scattered Clouds
5:53 AM 53.1 °F 39.0 °F 59% 30.07 in 10.0 mi South 18.4 mph 26.5 mph N/A   Overcast
6:53 AM 50.0 °F 41.0 °F 71% 30.06 in 10.0 mi South 15.0 mph 25.3 mph 0.00 in Rain Light Rain
7:53 AM 48.9 °F 43.0 °F 80% 30.04 in 6.0 mi South 15.0 mph 21.9 mph 0.01 in Rain Light Rain
8:53 AM 51.1 °F 45.0 °F 80% 30.03 in 9.0 mi SSW 18.4 mph 33.4 mph 0.03 in Rain Light Rain
9:11 AM 50.0 °F 44.6 °F 82% 30.02 in 8.0 mi South 16.1 mph 25.3 mph 0.00 in Rain Light Rain
9:27 AM 50.0 °F 46.4 °F 87% 30.01 in 4.0 mi SSW 16.1 mph 27.6 mph 0.01 in Rain Light Rain
9:53 AM 51.1 °F 46.0 °F 83% 30.01 in 8.0 mi SSW 17.3 mph 27.6 mph 0.01 in Rain Light Rain
10:53 AM 52.0 °F 46.0 °F 80% 30.00 in 7.0 mi SSW 23.0 mph 31.1 mph 0.00 in Rain Light Rain
11:07 AM 51.8 °F 46.4 °F 82% 29.99 in 10.0 mi South 19.6 mph 26.5 mph 0.00 in Rain Light Rain
11:53 AM 51.1 °F 46.9 °F 86% 29.98 in 4.0 mi SSW 15.0 mph - 0.01 in Rain Light Rain
12:53 PM 52.0 °F 48.0 °F 86% 29.96 in 3.0 mi SSW 13.8 mph 21.9 mph 0.08 in Rain Light Rain
1:43 PM 51.8 °F 48.2 °F 88% 29.95 in 2.0 mi SSW 11.5 mph - 0.09 in Rain Rain
1:53 PM 51.1 °F 48.9 °F 92% 29.95 in 2.5 mi SSW 10.4 mph - 0.13 in Rain Heavy Rain
2:04 PM 51.8 °F 48.2 °F 88% 29.94 in 4.0 mi SSW 10.4 mph - 0.04 in Rain Rain
2:53 PM 52.0 °F 48.9 °F 89% 29.95 in 10.0 mi SSW 10.4 mph 19.6 mph 0.09 in Rain Light Rain
3:19 PM 51.8 °F 50.0 °F 94% 29.95 in 4.0 mi SSW 10.4 mph - 0.00 in   Overcast
3:53 PM 53.1 °F 51.1 °F 93% 29.96 in 3.0 mi SW 11.5 mph - 0.00 in   Overcast
4:00 PM 53.6 °F 51.8 °F 94% 29.96 in 2.0 mi SW 10.4 mph - N/A   Overcast
4:10 PM 53.6 °F 51.8 °F 94% 29.96 in 1.5 mi SW 12.7 mph - N/A   Overcast
4:24 PM 53.6 °F 51.8 °F 94% 29.97 in 1.2 mi SW 11.5 mph - N/A   Overcast
4:40 PM 53.6 °F 51.8 °F 94% 29.97 in 2.5 mi SW 11.5 mph - 0.00 in   Overcast
4:53 PM 53.1 °F 51.1 °F 93% 29.97 in 3.0 mi SW 13.8 mph - 0.00 in   Overcast
5:02 PM 53.6 °F 51.8 °F 94% 29.97 in 2.5 mi SW 11.5 mph 20.7 mph N/A   Overcast
5:09 PM 53.6 °F 51.8 °F 94% 29.98 in 3.0 mi SW 13.8 mph - N/A   Overcast
5:17 PM 53.6 °F 51.8 °F 94% 29.98 in 2.5 mi SW 13.8 mph - N/A   Overcast
5:50 PM 53.6 °F 51.8 °F 94% 29.99 in 3.0 mi SW 16.1 mph 27.6 mph 0.00 in   Overcast
5:53 PM 53.1 °F 52.0 °F 96% 30.00 in 3.0 mi WSW 16.1 mph 27.6 mph 0.00 in   Overcast
6:03 PM 53.6 °F 51.8 °F 94% 29.99 in 2.5 mi WSW 16.1 mph 25.3 mph 0.01 in Rain Light Rain
6:15 PM 53.6 °F 51.8 °F 94% 30.00 in 2.0 mi WSW 15.0 mph 23.0 mph 0.01 in Rain Light Rain
6:53 PM 53.1 °F 51.1 °F 93% 30.03 in 2.0 mi WSW 15.0 mph 23.0 mph 0.02 in Rain Light Rain
7:07 PM 51.8 °F 51.8 °F 100% 30.03 in 5.0 mi WSW 13.8 mph 21.9 mph 0.00 in   Overcast
7:26 PM 51.8 °F 51.8 °F 100% 30.04 in 2.5 mi WSW 16.1 mph 25.3 mph 0.00 in Rain Light Rain
7:53 PM 51.1 °F 51.1 °F 100% 30.06 in 3.0 mi WSW 15.0 mph 21.9 mph 0.00 in   Overcast
8:07 PM 51.8 °F 50.0 °F 94% 30.06 in 2.0 mi WSW 13.8 mph 24.2 mph N/A   Overcast
8:18 PM 51.8 °F 50.0 °F 94% 30.06 in 1.8 mi WSW 12.7 mph 21.9 mph N/A   Overcast
8:31 PM 51.8 °F 50.0 °F 94% 30.06 in 2.0 mi WSW 12.7 mph - N/A   Overcast
8:53 PM 51.1 °F 50.0 °F 96% 30.07 in 3.0 mi SW 11.5 mph - N/A   Overcast
9:27 PM 51.8 °F 50.0 °F 94% 30.06 in 2.5 mi WSW 9.2 mph - N/A   Overcast
9:53 PM 51.1 °F 50.0 °F 96% 30.07 in 2.5 mi SW 9.2 mph - N/A   Overcast
10:33 PM 51.8 °F 50.0 °F 94% 30.09 in 1.8 mi WSW 10.4 mph - N/A   Overcast
10:50 PM 50.0 °F 48.2 °F 94% 30.09 in 0.8 mi West 9.2 mph - N/A   Overcast
10:53 PM 50.0 °F 48.9 °F 96% 30.10 in 0.8 mi WSW 9.2 mph - N/A   Overcast
11:53 PM 48.9 °F 48.0 °F 97% 30.13 in 0.5 mi WSW 5.8 mph - N/A Fog Fog